Time,TemperatureF,DewpointF,PressureIn,WindDirection,WindDirectionDegrees,WindSpeedMPH,WindSpeedGustMPH,Humidity,HourlyPrecipIn,Conditions,Clouds,dailyrainin,SoftwareType,DateUTC
2013-01-21 16:13:00,70.8,62.5,30.03,NW,304,8.0,0.0,75,0.00,,,0.00,WeatherTracker,2013-01-21 21:13:00,
2013-01-21 16:14:00,70.8,62.5,30.03,WNW,302,7.0,0.0,75,0.00,,,0.00,WeatherTracker,2013-01-21 21:14:00,
2013-01-21 16:19:00,70.5,62.2,30.03,WNW,296,3.0,0.0,75,0.00,,,0.00,WeatherTracker,2013-01-21 21:19:00,
2013-01-21 16:24:00,70.2,62.3,30.03,NNW,336,5.0,0.0,76,0.00,,,0.00,WeatherTracker,2013-01-21 21:24:00,
2013-01-21 16:29:00,69.8,61.9,30.03,NW,313,2.0,0.0,76,0.00,,,0.00,WeatherTracker,2013-01-21 21:29:00,
2013-01-21 16:34:00,69.7,62.2,30.03,NW,304,5.0,0.0,77,0.00,,,0.00,WeatherTracker,2013-01-21 21:34:00,
2013-01-21 16:39:00,69.6,62.1,30.03,NW,321,4.0,0.0,77,0.00,,,0.00,WeatherTracker,2013-01-21 21:39:00,
2013-01-21 16:44:00,69.4,62.2,30.03,North,360,5.0,0.0,78,0.00,,,0.00,WeatherTracker,2013-01-21 21:44:00,
2013-01-21 16:49:00,69.0,61.8,30.03,North,9,6.0,0.0,78,0.00,,,0.00,WeatherTracker,2013-01-21 21:49:00,
2013-01-21 16:54:00,68.6,61.8,30.02,West,279,5.0,0.0,79,0.00,,,0.00,WeatherTracker,2013-01-21 21:54:00,
2013-01-21 16:59:00,68.3,61.5,30.03,NW,317,2.0,0.0,79,0.00,,,0.00,WeatherTracker,2013-01-21 21:59:00,
2013-01-21 17:04:00,68.3,61.9,30.03,NW,304,5.0,0.0,80,0.00,,,0.00,WeatherTracker,2013-01-21 22:04:00,
2013-01-21 17:09:00,68.2,61.8,30.03,West,277,4.0,0.0,80,0.00,,,0.00,WeatherTracker,2013-01-21 22:09:00,
2013-01-21 17:14:00,67.9,61.1,30.03,West,275,11.0,0.0,79,0.00,,,0.00,WeatherTracker,2013-01-21 22:14:00,
2013-01-21 17:19:00,67.7,61.3,30.04,WNW,289,6.0,0.0,80,0.00,,,0.00,WeatherTracker,2013-01-21 22:19:00,
2013-01-21 17:24:00,67.4,61.0,30.04,NW,309,4.0,0.0,80,0.00,,,0.00,WeatherTracker,2013-01-21 22:24:00,
2013-01-21 17:29:00,67.0,61.0,30.04,WNW,302,4.0,0.0,81,0.00,,,0.00,WeatherTracker,2013-01-21 22:29:00,
2013-01-21 17:34:00,66.7,61.0,30.04,NW,312,6.0,0.0,82,0.00,,,0.00,WeatherTracker,2013-01-21 22:34:00,
2013-01-21 17:39:00,66.5,60.8,30.04,WNW,289,4.0,0.0,82,0.00,,,0.00,WeatherTracker,2013-01-21 22:39:00,
2013-01-21 17:44:00,66.3,61.0,30.04,WNW,294,6.0,0.0,83,0.00,,,0.00,WeatherTracker,2013-01-21 22:44:00,
2013-01-21 17:49:00,66.1,60.8,30.04,NNW,340,4.0,0.0,83,0.00,,,0.00,WeatherTracker,2013-01-21 22:49:00,
2013-01-21 17:54:00,65.8,60.5,30.04,North,360,5.0,0.0,83,0.00,,,0.00,WeatherTracker,2013-01-21 22:54:00,
2013-01-21 17:59:00,65.6,60.3,30.04,NW,306,5.0,0.0,83,0.00,,,0.00,WeatherTracker,2013-01-21 22:59:00,
2013-01-21 18:04:00,65.4,60.1,30.05,WNW,299,3.0,0.0,83,0.00,,,0.00,WeatherTracker,2013-01-21 23:04:00,
2013-01-21 18:09:00,65.2,59.9,30.05,WNW,298,2.0,0.0,83,0.00,,,0.00,WeatherTracker,2013-01-21 23:09:00,
2013-01-21 18:14:00,65.1,59.8,30.05,WNW,294,3.0,0.0,83,0.00,,,0.00,WeatherTracker,2013-01-21 23:14:00,
2013-01-21 18:20:00,64.9,59.6,30.05,NW,325,6.0,0.0,83,0.00,,,0.00,WeatherTracker,2013-01-21 23:20:00,
2013-01-21 18:25:00,64.8,59.5,30.05,NW,311,6.0,0.0,83,0.00,,,0.00,WeatherTracker,2013-01-21 23:25:00,
2013-01-21 18:30:00,64.7,59.4,30.05,WNW,293,4.0,0.0,83,0.00,,,0.00,WeatherTracker,2013-01-21 23:30:00,
2013-01-21 18:35:00,64.6,59.7,30.04,WNW,301,3.0,0.0,84,0.00,,,0.00,WeatherTracker,2013-01-21 23:35:00,
2013-01-21 18:40:00,64.5,59.2,30.04,NW,326,1.0,0.0,83,0.00,,,0.00,WeatherTracker,2013-01-21 23:40:00,
2013-01-21 18:45:00,64.4,59.5,30.04,NW,315,4.0,0.0,84,0.00,,,0.00,WeatherTracker,2013-01-21 23:45:00,
2013-01-21 18:50:00,64.3,59.4,30.04,NW,311,2.0,0.0,84,0.00,,,0.00,WeatherTracker,2013-01-21 23:50:00,
2013-01-21 18:55:00,64.3,59.4,30.04,WNW,302,2.0,0.0,84,0.00,,,0.00,WeatherTracker,2013-01-21 23:55:00,
2013-01-21 19:00:00,64.2,58.9,30.04,NW,317,2.0,0.0,83,0.00,,,0.00,WeatherTracker,2013-01-22 00:00:00,
2013-01-21 19:05:00,64.0,58.7,30.04,NW,324,1.0,0.0,83,0.00,,,0.00,WeatherTracker,2013-01-22 00:05:00,
2013-01-21 19:10:00,64.0,58.7,30.05,NW,305,3.0,0.0,83,0.00,,,0.00,WeatherTracker,2013-01-22 00:10:00,
2013-01-21 19:15:00,63.9,58.3,30.05,NNW,340,1.0,0.0,82,0.00,,,0.00,WeatherTracker,2013-01-22 00:15:00,
2013-01-21 19:20:00,63.8,58.2,30.05,NW,310,0.0,0.0,82,0.00,,,0.00,WeatherTracker,2013-01-22 00:20:00,
2013-01-21 19:25:00,63.7,58.1,30.05,NW,309,4.0,0.0,82,0.00,,,0.00,WeatherTracker,2013-01-22 00:25:00,
2013-01-21 19:30:00,63.6,57.7,30.05,NW,304,1.0,0.0,81,0.00,,,0.00,WeatherTracker,2013-01-22 00:30:00,
2013-01-21 19:35:00,63.5,57.6,30.05,WNW,290,1.0,0.0,81,0.00,,,0.00,WeatherTracker,2013-01-22 00:35:00,
2013-01-21 19:40:00,63.4,57.1,30.05,NW,304,2.0,0.0,80,0.00,,,0.00,WeatherTracker,2013-01-22 00:40:00,
2013-01-21 19:45:00,63.3,56.7,30.05,NNW,344,4.0,0.0,79,0.00,,,0.00,WeatherTracker,2013-01-22 00:45:00,
2013-01-21 19:50:00,63.3,56.3,30.05,NW,311,3.0,0.0,78,0.00,,,0.00,WeatherTracker,2013-01-22 00:50:00,
2013-01-21 19:55:00,63.2,56.2,30.05,NW,314,2.0,0.0,78,0.00,,,0.00,WeatherTracker,2013-01-22 00:55:00,
2013-01-21 20:00:00,63.1,56.1,30.06,NW,306,0.0,0.0,78,0.00,,,0.00,WeatherTracker,2013-01-22 01:00:00,
2013-01-21 20:05:00,62.9,55.9,30.06,NNW,336,2.0,0.0,78,0.00,,,0.00,WeatherTracker,2013-01-22 01:05:00,
2013-01-21 20:10:00,62.7,55.4,30.06,NNW,340,1.0,0.0,77,0.00,,,0.00,WeatherTracker,2013-01-22 01:10:00,
2013-01-21 20:15:00,62.6,55.3,30.06,NNW,346,5.0,0.0,77,0.00,,,0.00,WeatherTracker,2013-01-22 01:15:00,
2013-01-21 20:21:00,62.6,55.3,30.06,NW,323,6.0,0.0,77,0.00,,,0.00,WeatherTracker,2013-01-22 01:21:00,
2013-01-21 20:26:00,62.5,55.2,30.06,NNW,335,0.0,0.0,77,0.00,,,0.00,WeatherTracker,2013-01-22 01:26:00,
2013-01-21 20:31:00,62.4,54.7,30.06,NNW,330,0.0,0.0,76,0.00,,,0.00,WeatherTracker,2013-01-22 01:31:00,
2013-01-21 20:36:00,62.3,54.6,30.06,NW,306,1.0,0.0,76,0.00,,,0.00,WeatherTracker,2013-01-22 01:36:00,
2013-01-21 20:41:00,62.3,54.6,30.06,NNW,330,1.0,0.0,76,0.00,,,0.00,WeatherTracker,2013-01-22 01:41:00,
2013-01-21 20:46:00,62.2,54.5,30.06,NNW,338,0.0,0.0,76,0.00,,,0.00,WeatherTracker,2013-01-22 01:46:00,
2013-01-21 20:51:00,62.2,54.5,30.06,NNW,329,2.0,0.0,76,0.00,,,0.00,WeatherTracker,2013-01-22 01:51:00,
2013-01-21 20:56:00,62.1,54.4,30.06,NW,311,1.0,0.0,76,0.00,,,0.00,WeatherTracker,2013-01-22 01:56:00,
2013-01-21 21:01:00,61.9,54.2,30.07,NW,309,1.0,0.0,76,0.00,,,0.00,WeatherTracker,2013-01-22 02:01:00,
2013-01-21 21:06:00,61.8,54.2,30.07,NNW,331,0.0,0.0,76,0.00,,,0.00,WeatherTracker,2013-01-22 02:06:00,
2013-01-21 21:11:00,61.7,54.1,30.07,NNW,331,0.0,0.0,76,0.00,,,0.00,WeatherTracker,2013-01-22 02:11:00,
2013-01-21 21:16:00,61.6,54.3,30.07,NNW,331,0.0,0.0,77,0.00,,,0.00,WeatherTracker,2013-01-22 02:16:00,
2013-01-21 21:21:00,61.4,54.1,30.07,NNW,329,0.0,0.0,77,0.00,,,0.00,WeatherTracker,2013-01-22 02:21:00,
2013-01-21 21:26:00,61.3,54.0,30.08,NNW,329,0.0,0.0,77,0.00,,,0.00,WeatherTracker,2013-01-22 02:26:00,
2013-01-21 21:31:00,61.2,54.3,30.08,NW,311,1.0,0.0,78,0.00,,,0.00,WeatherTracker,2013-01-22 02:31:00,
2013-01-21 21:36:00,61.1,54.2,30.07,NW,311,0.0,0.0,78,0.00,,,0.00,WeatherTracker,2013-01-22 02:36:00,
2013-01-21 21:41:00,61.0,54.1,30.07,NW,311,2.0,0.0,78,0.00,,,0.00,WeatherTracker,2013-01-22 02:41:00,
2013-01-21 21:46:00,61.0,54.1,30.07,NNW,338,0.0,0.0,78,0.00,,,0.00,WeatherTracker,2013-01-22 02:46:00,
2013-01-21 21:51:00,61.0,54.1,30.08,North,351,5.0,0.0,78,0.00,,,0.00,WeatherTracker,2013-01-22 02:51:00,
2013-01-21 21:56:00,60.9,54.0,30.08,WNW,300,2.0,0.0,78,0.00,,,0.00,WeatherTracker,2013-01-22 02:56:00,
2013-01-21 22:01:00,61.0,54.1,30.08,WNW,298,0.0,0.0,78,0.00,,,0.00,WeatherTracker,2013-01-22 03:01:00,
2013-01-21 22:07:00,61.0,54.1,30.08,WNW,293,3.0,0.0,78,0.00,,,0.00,WeatherTracker,2013-01-22 03:07:00,
2013-01-21 22:12:00,61.1,53.8,30.08,WNW,293,0.0,0.0,77,0.00,,,0.00,WeatherTracker,2013-01-22 03:12:00,
2013-01-21 22:17:00,61.1,53.8,30.08,NNW,331,0.0,0.0,77,0.00,,,0.00,WeatherTracker,2013-01-22 03:17:00,
2013-01-21 22:22:00,61.2,53.9,30.08,NNW,346,0.0,0.0,77,0.00,,,0.00,WeatherTracker,2013-01-22 03:22:00,
2013-01-21 22:27:00,61.3,54.0,30.08,NNW,341,1.0,0.0,77,0.00,,,0.00,WeatherTracker,2013-01-22 03:27:00,
2013-01-21 22:32:00,61.4,54.1,30.08,NW,315,1.0,0.0,77,0.00,,,0.00,WeatherTracker,2013-01-22 03:32:00,
2013-01-21 22:37:00,61.5,54.2,30.08,NW,317,1.0,0.0,77,0.00,,,0.00,WeatherTracker,2013-01-22 03:37:00,
2013-01-21 22:42:00,61.7,54.4,30.08,WNW,302,3.0,0.0,77,0.00,,,0.00,WeatherTracker,2013-01-22 03:42:00,
2013-01-21 22:47:00,61.8,54.5,30.08,NNW,329,1.0,0.0,77,0.00,,,0.00,WeatherTracker,2013-01-22 03:47:00,
2013-01-21 22:52:00,62.0,54.7,30.09,WNW,292,4.0,0.0,77,0.00,,,0.00,WeatherTracker,2013-01-22 03:52:00,
2013-01-21 22:57:00,62.1,54.8,30.08,NNE,20,6.0,0.0,77,0.00,,,0.00,WeatherTracker,2013-01-22 03:57:00,
2013-01-21 23:02:00,62.2,54.9,30.08,North,355,1.0,0.0,77,0.00,,,0.00,WeatherTracker,2013-01-22 04:02:00,
2013-01-21 23:07:00,62.2,54.9,30.08,NNW,334,1.0,0.0,77,0.00,,,0.00,WeatherTracker,2013-01-22 04:07:00,
2013-01-21 23:12:00,62.3,55.0,30.08,North,360,5.0,0.0,77,0.00,,,0.00,WeatherTracker,2013-01-22 04:12:00,
2013-01-21 23:17:00,62.3,55.0,30.09,North,11,4.0,0.0,77,0.00,,,0.00,WeatherTracker,2013-01-22 04:17:00,
2013-01-21 23:22:00,62.2,54.9,30.08,NW,317,1.0,0.0,77,0.00,,,0.00,WeatherTracker,2013-01-22 04:22:00,
2013-01-21 23:27:00,62.2,54.9,30.09,NNW,331,1.0,0.0,77,0.00,,,0.00,WeatherTracker,2013-01-22 04:27:00,
2013-01-21 23:32:00,62.1,54.8,30.09,NNW,331,1.0,0.0,77,0.00,,,0.00,WeatherTracker,2013-01-22 04:32:00,
2013-01-21 23:37:00,62.1,54.8,30.09,NNW,331,3.0,0.0,77,0.00,,,0.00,WeatherTracker,2013-01-22 04:37:00,
2013-01-21 23:42:00,62.0,54.7,30.09,NNW,331,2.0,0.0,77,0.00,,,0.00,WeatherTracker,2013-01-22 04:42:00,
2013-01-21 23:47:00,61.9,55.0,30.10,NW,312,3.0,0.0,78,0.00,,,0.00,WeatherTracker,2013-01-22 04:47:00,
2013-01-21 23:52:00,61.9,55.0,30.10,WNW,288,6.0,0.0,78,0.00,,,0.00,WeatherTracker,2013-01-22 04:52:00,
2013-01-21 23:57:00,61.9,55.0,30.09,North,350,1.0,0.0,78,0.00,,,0.00,WeatherTracker,2013-01-22 04:57:00,